Location: ?astrovice
(49.6513°N, 14.9287°E)
Time: 06:31:10
(UTC+00:00)

Cosmos 1408 - Pass Details

Date: 09 April 2020
Orbit: 470 x 494 km, 82.6° (Epoch: 29 May)

Event Time Altitude Azimuth Distance (km) Brightness Sun altitude
Rises 20:41:38 0° 343° (NNW) 2,565 7.3 -24.8°
Reaches altitude 10° 20:43:49 10° 336° (NNW) 1,683 6.3 -25.0°
Enters shadow 20:46:56 38° 282° (WNW) 758 3.8 -25.3°
